| time (UTC) | temp C | wind direction | speed KPH | gust KPH | rain 1hr cm | rain 24hr cm | rain mn cm | humidity % | barometer mb |
| 20260505183054 | 13 | 198 | 3.2 | 12.9 | 0.00 | 0.00 | 0.00 | 82 | 1015.9 |
| 20260505181556 | 13 | 235 | 3.2 | 6.4 | 0.00 | 0.00 | 0.00 | 83 | 1015.9 |
| 20260505180016 | 13 | 208 | 4.8 | 9.7 | 0.00 | 0.00 | 0.00 | 83 | 1015.9 |
| 20260505174523 | 13 | 266 | 1.6 | 11.3 | 0.00 | 0.00 | 0.00 | 83 | 1015.8 |
| 20260505173028 | 13 | 249 | 3.2 | 9.7 | 0.00 | 0.00 | 0.00 | 84 | 1015.8 |
| 20260505171534 | 13 | 212 | 3.2 | 11.3 | 0.00 | 0.00 | 0.00 | 84 | 1015.7 |
| 20260505170042 | 13 | 233 | 3.2 | 11.3 | 0.00 | 0.00 | 0.00 | 84 | 1015.6 |
| 20260505164550 | 13 | 214 | 4.8 | 11.3 | 0.00 | 0.00 | 0.00 | 85 | 1015.5 |
| 20260505163009 | 12 | 253 | 3.2 | 9.7 | 0.00 | 0.00 | 0.00 | 85 | 1015.5 |
| 20260505161521 | 13 | 193 | 1.6 | 9.7 | 0.00 | 0.00 | 0.00 | 85 | 1015.4 |
| 20260505153023 | 12 | 225 | 6.4 | 11.3 | 0.00 | 0.00 | 0.00 | 86 | 1015.3 |
| 20260505151532 | 12 | 212 | 3.2 | 9.7 | 0.00 | 0.00 | 0.00 | 86 | 1015.3 |
| 20260505124520 | 12 | 201 | 3.2 | 11.3 | 0.00 | 0.00 | 0.00 | 88 | 1013.9 |
| 20260505123053 | 12 | 220 | 4.8 | 11.3 | 0.00 | 0.00 | 0.00 | 88 | 1013.8 |
| 20260505121559 | 12 | 213 | 1.6 | 6.4 | 0.00 | 0.00 | 0.00 | 88 | 1013.7 |
| 20260505120028 | 12 | 185 | 6.4 | 11.3 | 0.00 | 0.00 | 0.00 | 88 | 1013.6 |
| 20260505114557 | 12 | 207 | 1.6 | 9.7 | 0.00 | 0.00 | 0.00 | 88 | 1013.5 |
| 20260505113040 | 12 | 245 | 3.2 | 9.7 | 0.00 | 0.00 | 0.00 | 88 | 1013.5 |
| 20260505111605 | 12 | 211 | 4.8 | 11.3 | 0.00 | 0.00 | 0.00 | 88 | 1013.5 |
| 20260505111507 | 12 | 212 | 3.2 | 11.3 | 0.00 | 0.00 | 0.00 | 88 | 1013.5 |
| 20260505101538 | 12 | 174 | 3.2 | 8.0 | 0.00 | 0.00 | 0.00 | 89 | 1013.1 |
| 20260505100026 | 12 | 178 | 4.8 | 9.7 | 0.00 | 0.00 | 0.00 | 89 | 1013.0 |
| 20260505094555 | 12 | 187 | 3.2 | 8.0 | 0.00 | 0.00 | 0.00 | 89 | 1013.0 |
| 20260505093010 | 12 | 206 | 3.2 | 8.0 | 0.00 | 0.00 | 0.00 | 89 | 1012.9 |
| 20260505091515 | 12 | 211 | 4.8 | 12.9 | 0.00 | 0.00 | 0.00 | 89 | 1012.8 |
| 20260505090030 | 12 | 213 | 6.4 | 17.7 | 0.00 | 0.00 | 0.00 | 89 | 1012.7 |
| 20260505084543 | 12 | 226 | 8.0 | 17.7 | 0.00 | 0.00 | 0.00 | 89 | 1012.6 |
| 20260505083103 | 12 | 227 | 6.4 | 12.9 | 0.00 | 0.00 | 0.00 | 89 | 1012.6 |
| 20260505083006 | 12 | 188 | 4.8 | 12.9 | 0.00 | 0.00 | 0.00 | 89 | 1012.6 |
| 20260505081511 | 12 | 192 | 6.4 | 11.3 | 0.00 | 0.00 | 0.00 | 89 | 1012.5 |
| 20260505080049 | 12 | 217 | 4.8 | 11.3 | 0.00 | 0.00 | 0.00 | 89 | 1012.5 |
| 20260505074555 | 12 | 204 | 3.2 | 9.7 | 0.00 | 0.00 | 0.00 | 89 | 1012.3 |
| 20260505073051 | 12 | 215 | 3.2 | 9.7 | 0.00 | 0.00 | 0.00 | 89 | 1012.1 |
| 20260505071558 | 12 | 232 | 4.8 | 14.5 | 0.00 | 0.00 | 0.00 | 89 | 1011.8 |
| 20260505070100 | 12 | 223 | 3.2 | 14.5 | 0.00 | 0.00 | 0.00 | 88 | 1011.9 |
| 20260505064509 | 12 | 179 | 6.4 | 12.9 | 0.00 | 0.00 | 0.00 | 88 | 1011.8 |
| 20260505063044 | 12 | 247 | 8.0 | 17.7 | 0.00 | 0.00 | 0.00 | 87 | 1011.6 |
| 20260505061555 | 12 | 214 | 6.4 | 11.3 | 0.00 | 0.00 | 0.00 | 87 | 1011.5 |
| 20260505060034 | 12 | 190 | 4.8 | 14.5 | 0.00 | 0.00 | 0.00 | 86 | 1011.3 |
| 20260505054533 | 13 | 251 | 3.2 | 11.3 | 0.00 | 0.00 | 0.00 | 85 | 1011.1 |
| 20260505053040 | 13 | 268 | 3.2 | 11.3 | 0.00 | 0.00 | 0.00 | 84 | 1011.0 |
| 20260505051603 | 13 | 250 | 4.8 | 8.0 | 0.00 | 0.00 | 0.00 | 83 | 1011.1 |
| 20260505041544 | 15 | 249 | 8.0 | 16.1 | 0.00 | 0.00 | 0.00 | 79 | 1010.3 |
| 20260505040101 | 15 | 256 | 8.0 | 25.7 | 0.00 | 0.00 | 0.00 | 77 | 1010.1 |
| 20260505040004 | 15 | 245 | 9.7 | 25.7 | 0.00 | 0.00 | 0.00 | 77 | 1010.1 |
| 20260505034540 | 16 | 228 | 8.0 | 17.7 | 0.00 | 0.00 | 0.00 | 74 | 1009.9 |
| 20260505033056 | 16 | 227 | 8.0 | 19.3 | 0.00 | 0.00 | 0.00 | 72 | 1009.8 |
| 20260505031544 | 17 | 214 | 6.4 | 12.9 | 0.00 | 0.00 | 0.00 | 70 | 1009.7 |
| 20260505030034 | 18 | 264 | 6.4 | 17.7 | 0.00 | 0.00 | 0.00 | 68 | 1009.5 |
| 20260505024523 | 18 | 237 | 3.2 | 11.3 | 0.00 | 0.00 | 0.00 | 66 | 1009.3 |
| 20260505023018 | 19 | 229 | 6.4 | 16.1 | 0.00 | 0.00 | 0.00 | 63 | 1009.2 |
| 20260505021529 | 20 | 242 | 4.8 | 9.7 | 0.00 | 0.00 | 0.00 | 62 | 1009.0 |
| 20260505020039 | 20 | 252 | 8.0 | 17.7 | 0.00 | 0.00 | 0.00 | 59 | 1009.0 |
| 20260505014600 | 21 | 228 | 8.0 | 17.7 | 0.00 | 0.00 | 0.00 | 56 | 1009.0 |
| 20260505014504 | 21 | 245 | 4.8 | 17.7 | 0.00 | 0.00 | 0.00 | 56 | 1009.0 |
| 20260505013057 | 23 | 222 | 4.8 | 14.5 | 0.00 | 0.00 | 0.00 | 53 | 1009.0 |
| 20260505011609 | 23 | 262 | 3.2 | 12.9 | 0.00 | 0.00 | 0.00 | 51 | 1009.0 |
| 20260505010036 | 23 | 259 | 4.8 | 17.7 | 0.00 | 0.00 | 0.00 | 52 | 1009.0 |
| 20260505004524 | 25 | 281 | 1.6 | 16.1 | 0.00 | 0.00 | 0.00 | 51 | 1009.0 |
| 20260505003039 | 25 | 297 | 1.6 | 14.5 | 0.00 | 0.00 | 0.00 | 51 | 1009.0 |
| 20260505001530 | 25 | 305 | 3.2 | 12.9 | 0.00 | 0.00 | 0.00 | 50 | 1009.0 |
| 20260505000020 | 25 | 315 | 3.2 | 11.3 | 0.00 | 0.00 | 0.00 | 50 | 1009.0 |
| 20260504234521 | 25 | 228 | 6.4 | 14.5 | 0.00 | 0.00 | 0.00 | 50 | 1008.9 |
| 20260504233008 | 24 | 297 | 3.2 | 16.1 | 0.00 | 0.00 | 0.00 | 50 | 1009.0 |
| 20260504231519 | 24 | 266 | 6.4 | 14.5 | 0.00 | 0.00 | 0.00 | 50 | 1009.1 |
| 20260504230034 | 25 | 228 | 3.2 | 11.3 | 0.00 | 0.00 | 0.00 | 52 | 1009.3 |
| 20260504224535 | 23 | 240 | 6.4 | 17.7 | 0.00 | 0.00 | 0.00 | 52 | 1009.5 |
| 20260504223054 | 24 | 258 | 3.2 | 16.1 | 0.00 | 0.00 | 0.00 | 52 | 1009.6 |
| 20260504221551 | 24 | 298 | 4.8 | 14.5 | 0.00 | 0.00 | 0.00 | 50 | 1009.7 |
| 20260504220059 | 25 | 336 | 1.6 | 16.1 | 0.00 | 0.00 | 0.00 | 50 | 1009.8 |
| 20260504220002 | 24 | 293 | 1.6 | 16.1 | 0.00 | 0.00 | 0.00 | 50 | 1009.8 |
| 20260504214541 | 24 | 314 | 4.8 | 14.5 | 0.00 | 0.00 | 0.00 | 50 | 1009.9 |
| 20260504213043 | 23 | 245 | 3.2 | 11.3 | 0.00 | 0.00 | 0.00 | 51 | 1010.0 |
| 20260504211552 | 22 | 234 | 8.0 | 16.1 | 0.00 | 0.00 | 0.00 | 52 | 1010.0 |
| 20260504210055 | 23 | 278 | 4.8 | 14.5 | 0.00 | 0.00 | 0.00 | 54 | 1010.1 |
| 20260504204606 | 22 | 299 | 4.8 | 16.1 | 0.00 | 0.00 | 0.00 | 54 | 1010.1 |
| 20260504204500 | 22 | 291 | 4.8 | 16.1 | 0.00 | 0.00 | 0.00 | 53 | 1010.1 |
| 20260504203018 | 22 | 291 | 3.2 | 12.9 | 0.00 | 0.00 | 0.00 | 53 | 1010.2 |
| 20260504201523 | 22 | 239 | 8.0 | 14.5 | 0.00 | 0.00 | 0.00 | 53 | 1010.2 |
| 20260504200039 | 22 | 235 | 6.4 | 14.5 | 0.00 | 0.00 | 0.00 | 55 | 1010.5 |
| 20260504194551 | 21 | 245 | 4.8 | 14.5 | 0.00 | 0.00 | 0.00 | 56 | 1010.4 |
| 20260504193055 | 21 | 282 | 3.2 | 12.9 | 0.00 | 0.00 | 0.00 | 57 | 1010.4 |
| 20260504191503 | 21 | 276 | 1.6 | 14.5 | 0.00 | 0.00 | 0.00 | 57 | 1010.6 |
| 20260504190019 | 21 | 293 | 3.2 | 12.9 | 0.00 | 0.00 | 0.00 | 58 | 1010.7 |
| 20260504184533 | 20 | 257 | 4.8 | 14.5 | 0.00 | 0.00 | 0.00 | 59 | 1010.8 |